Weather History for KFDY - February, 2013

Change the Weather History Date:

Friday, February 22, 2013

  Actual Average (KTOL) Record (KTOL)
Temperature  
Mean Temperature 29 °F 30 °F  
Max Temperature 37 °F 38 °F 66 °F (1930)
Min Temperature 21 °F 22 °F -9 °F (1963)
Degree Days  
Heating Degree Days 36 35  
Month to date heating degree days 824  
Since 1 July heating degree days 4373  
Cooling Degree Days 0 0  
Month to date cooling degree days 0  
Year to date cooling degree days 0  
Moisture  
Dew Point 27 °F    
Average Humidity 89    
Maximum Humidity 100    
Minimum Humidity 72    
Precipitation  
Precipitation 0.03 in 0.07 in - ()
Month to date precipitation 1.58  
Year to date precipitation 3.63  
Snow  
Snow 0.00 in 0.30 in - ()
Month to date snowfall 7.6  
Since 1 July snowfall 28.7  
Snow Depth -    
Sea Level Pressure  
Sea Level Pressure 29.95 in    
Wind  
Wind Speed 12 mph (SE)    
Max Wind Speed 20 mph    
Max Gust Speed 25 mph    
Visibility 4 miles    
Events Rain , Snow    
T = Trace of Precipitation, MM = Missing Value Source: NWS Daily Summary

Daily Weather History Graph

Daily Weather History Graph

Search for Another Location

Airport or City:

Trip Planner

Search our weather history database for the weather conditions in past years. The results will help you decide how hot, cold, wet, or windy it might be!

Date:

Astronomy

Feb. 22, 2013 Rise Set
Actual Time 7:18 AM EST 6:17 PM EST
Civil Twilight 6:51 AM EST 6:45 PM EST
Nautical Twilight 6:19 AM EST 7:17 PM EST
Astronomical Twilight 5:47 AM EST 7:49 PM EST
Moon 3:27 PM EST (2/22) 5:04 AM EST (2/22)
Length of Visible Light 11h 54m
Length of Day
10h 58m
Waxing Gibbous, 90% of the Moon is Illuminated
Feb 22
Waxing Gibbous
Feb 25
Full
Mar 4
Last Quarter
Mar 11
New
Mar 19
First Quarter

Hourly Weather History & Observations

Time (EST) Temp. Windchill Dew Point Humidity Pressure Visibility Wind Dir Wind Speed Gust Speed Precip Events Conditions
12:53 AM 21.9 °F 8.7 °F 14.0 °F 72% 30.19 in 10.0 mi East 15.0 mph 21.9 mph N/A   Overcast
1:53 AM 21.9 °F 10.4 °F 15.1 °F 75% 30.18 in 10.0 mi East 11.5 mph - N/A   Overcast
2:53 AM 21.9 °F 8.7 °F 15.1 °F 75% 30.11 in 9.0 mi ENE 15.0 mph - 0.00 in Snow Light Snow
3:18 AM 21.2 °F 6.4 °F 15.8 °F 80% 30.04 in 2.0 mi ENE 18.4 mph - 0.00 in Snow Light Snow
3:27 AM 21.2 °F 7.8 °F 17.6 °F 86% 30.03 in 1.5 mi East 15.0 mph - 0.00 in Snow Light Snow
3:42 AM 21.2 °F 7.8 °F 17.6 °F 86% 30.04 in 2.5 mi East 15.0 mph - 0.00 in Snow Light Snow
3:49 AM 21.2 °F 9.5 °F 17.6 °F 86% 30.04 in 3.0 mi East 11.5 mph 20.7 mph 0.00 in Snow Light Snow
3:53 AM 21.9 °F 9.8 °F 17.1 °F 82% 30.06 in 2.5 mi East 12.7 mph 19.6 mph 0.00 in Snow Light Snow
3:59 AM 21.2 °F 8.3 °F 17.6 °F 86% 30.03 in 1.8 mi East 13.8 mph - 0.00 in Snow Light Snow
4:14 AM 21.2 °F 7.3 °F 17.6 °F 86% 30.00 in 3.0 mi East 16.1 mph - 0.00 in Snow Light Snow
4:53 AM 23.0 °F 9.6 °F 19.0 °F 85% 30.01 in 4.0 mi East 16.1 mph 23.0 mph 0.00 in   Overcast
5:28 AM 24.8 °F 11.1 °F 19.4 °F 80% 29.96 in 2.5 mi East 18.4 mph - 0.02 in   Overcast
5:40 AM 24.8 °F 10.7 °F 21.2 °F 86% 29.95 in 2.5 mi East 19.6 mph 25.3 mph 0.02 in Rain Light Freezing Rain
5:49 AM 24.8 °F 12.4 °F 21.2 °F 86% 29.94 in 4.0 mi East 15.0 mph - 0.02 in Rain Light Freezing Rain
5:50 AM 24.1 °F 10.6 °F 21.0 °F 88% 29.96 in 4.0 mi East 17.3 mph 25.3 mph 0.02 in Rain Light Freezing Rain
6:09 AM 24.8 °F 12.9 °F 21.2 °F 86% 29.94 in 4.0 mi East 13.8 mph - 0.00 in Rain Light Freezing Rain
6:38 AM 24.8 °F 13.4 °F 23.0 °F 93% 29.92 in 2.5 mi East 12.7 mph - 0.00 in Rain Light Freezing Rain
6:53 AM 26.1 °F 15.0 °F 23.0 °F 88% 29.94 in 4.0 mi ESE 12.7 mph - 0.01 in Rain Light Freezing Rain
7:20 AM 26.6 °F 17.5 °F 24.8 °F 93% 29.92 in 2.5 mi ESE 9.2 mph - 0.00 in Rain Light Freezing Rain
7:28 AM 26.6 °F 16.8 °F 24.8 °F 93% 29.92 in 3.0 mi ESE 10.4 mph - 0.00 in Rain Light Freezing Rain
7:49 AM 26.6 °F 16.8 °F 24.8 °F 93% 29.91 in 2.5 mi ESE 10.4 mph - 0.00 in Rain Light Freezing Rain
7:53 AM 27.0 °F 18.0 °F 25.0 °F 92% 29.94 in 2.5 mi SE 9.2 mph - 0.00 in Rain Light Freezing Rain
8:10 AM 26.6 °F 15.7 °F 24.8 °F 93% 29.91 in 3.0 mi ESE 12.7 mph - 0.00 in   Overcast
8:26 AM 26.6 °F 18.2 °F 24.8 °F 93% 29.92 in 2.5 mi ESE 8.1 mph - 0.00 in   Overcast
8:41 AM 26.6 °F 19.1 °F 26.6 °F 100% 29.93 in 1.8 mi ESE 6.9 mph - 0.00 in   Overcast
8:53 AM 27.0 °F 20.5 °F 26.1 °F 96% 29.95 in 2.0 mi ESE 5.8 mph - 0.00 in   Overcast
9:12 AM 28.4 °F 22.2 °F 26.6 °F 93% 29.92 in 1.5 mi SE 5.8 mph - N/A   Overcast
9:38 AM 28.4 °F 23.3 °F 26.6 °F 93% 29.93 in 2.5 mi SE 4.6 mph - N/A   Overcast
9:48 AM 28.4 °F 21.2 °F 26.6 °F 93% 29.92 in 3.0 mi ESE 6.9 mph - N/A   Overcast
9:53 AM 28.9 °F 21.1 °F 27.0 °F 92% 29.94 in 3.0 mi ESE 8.1 mph - N/A   Overcast
10:26 AM 30.2 °F 22.6 °F 28.4 °F 93% 29.89 in 1.8 mi ESE 8.1 mph - N/A   Overcast
10:43 AM 30.2 °F 22.6 °F 28.4 °F 93% 29.89 in 2.0 mi SE 8.1 mph - N/A   Overcast
10:53 AM 30.0 °F 24.1 °F 28.9 °F 96% 29.92 in 2.5 mi SE 5.8 mph - N/A   Overcast
11:13 AM 30.2 °F 22.6 °F 28.4 °F 93% 29.89 in 3.0 mi SE 8.1 mph - N/A   Overcast
11:42 AM 32.0 °F 24.8 °F 30.2 °F 93% 29.89 in 2.5 mi SSE 8.1 mph - N/A   Overcast
11:53 AM 32.0 °F 23.6 °F 30.9 °F 96% 29.91 in 1.5 mi SSE 10.4 mph - N/A   Overcast
12:08 PM 32.0 °F 24.2 °F 30.2 °F 93% 29.89 in 1.5 mi SSE 9.2 mph - N/A   Overcast
12:26 PM 33.8 °F 27.0 °F 30.2 °F 87% 29.88 in 2.0 mi SSE 8.1 mph - N/A   Overcast
12:53 PM 34.0 °F 26.6 °F 32.0 °F 92% 29.89 in 2.0 mi SSE 9.2 mph - N/A   Overcast
1:08 PM 33.8 °F 26.4 °F 33.8 °F 100% 29.87 in 1.5 mi South 9.2 mph - N/A   Overcast
1:46 PM 35.6 °F 29.2 °F 33.8 °F 93% 29.87 in 2.0 mi South 8.1 mph - N/A   Overcast
1:53 PM 35.1 °F 28.6 °F 34.0 °F 96% 29.88 in 2.0 mi South 8.1 mph - N/A   Overcast
2:13 PM 37.4 °F 30.3 °F 35.6 °F 93% 29.87 in 4.0 mi SSW 10.4 mph - N/A   Overcast
2:21 PM 37.4 °F 29.8 °F 35.6 °F 93% 29.87 in 6.0 mi SSW 11.5 mph - N/A   Overcast
2:53 PM 37.9 °F 30.5 °F 35.1 °F 89% 29.90 in 8.0 mi SW 11.5 mph - N/A   Overcast
3:50 PM 37.4 °F 29.3 °F 35.6 °F 93% 29.89 in 6.0 mi SW 12.7 mph - N/A   Overcast
3:53 PM 37.9 °F 30.0 °F 35.1 °F 89% 29.91 in 6.0 mi SW 12.7 mph - N/A   Overcast
4:28 PM 37.4 °F 29.3 °F 35.6 °F 93% 29.90 in 7.0 mi SSW 12.7 mph - N/A   Overcast
4:39 PM 37.4 °F 30.3 °F 33.8 °F 87% 29.89 in 7.0 mi SW 10.4 mph - N/A   Overcast
4:53 PM 37.9 °F 30.5 °F 34.0 °F 86% 29.91 in 8.0 mi SW 11.5 mph - N/A   Overcast
5:53 PM 37.0 °F 29.3 °F 32.0 °F 82% 29.93 in 10.0 mi WSW 11.5 mph - N/A   Overcast
6:22 PM 35.6 °F 27.5 °F 30.2 °F 81% 29.92 in 10.0 mi SW 11.5 mph - N/A   Overcast
6:53 PM 36.0 °F 27.1 °F 30.0 °F 79% 29.94 in 10.0 mi SW 13.8 mph - N/A   Overcast
7:27 PM 35.6 °F 28.6 °F 30.2 °F 81% 29.94 in 10.0 mi SW 9.2 mph - N/A   Overcast
7:53 PM 35.1 °F 27.9 °F 30.9 °F 85% 29.96 in 10.0 mi SW 9.2 mph - N/A   Overcast
8:24 PM 35.6 °F 28.0 °F 30.2 °F 81% 29.94 in 8.0 mi SW 10.4 mph - N/A   Overcast
8:53 PM 34.0 °F 26.6 °F 30.9 °F 89% 29.96 in 7.0 mi SSW 9.2 mph - N/A   Overcast
9:53 PM 34.0 °F 27.2 °F 30.9 °F 89% 29.96 in 8.0 mi SSW 8.1 mph - N/A   Overcast
10:53 PM 34.0 °F 27.2 °F 30.0 °F 85% 29.95 in 10.0 mi South 8.1 mph - N/A   Overcast
11:53 PM 34.0 °F 26.6 °F 28.9 °F 82% 29.94 in 10.0 mi SSW 9.2 mph - N/A   Overcast